Flag for Brazil Weather past 2 weeks in Niterói, Rio de Janeiro, Brazil

Now
82 °F

Sunny.


Feels Like: 87 °F
Forecast: 80 / 89 °F
Wind: 5 mph from North

Location: Rio De Janeiro Airport

Current Time: Jan 27, 2015 at 8:48:58 AM

Latest Report: Jan 27, 2015 at 8:00 AM


Visibility: 10 mi

Pressure: 29.92 "Hg

Humidity: 70%

Dew point: 72 °F

Location of NiteróiLocation

Historic Weather in Niterói — Graph

°F

Niterói temperature yesterday

Maximum temperature yesterday: 93 °F (at 12:00 PM)
Minimum temperature yesterday: 79 °F (at 6:00 AM)
Average temperature yesterday: 87 °F

Past Weeks' High & Low Weather Summary

 TemperatureHumidityPressure
High97 °F (Jan 12, 12:00 PM)100% (Jan 22, 9:00 PM)30.01 "Hg (Jan 22, 9:00 PM)
Low39 °F (Jan 22, 11:00 PM)32% (Jan 21, 5:00 PM)29.80 "Hg (Jan 12, 6:00 PM)
Average87 °F66%29.89 "Hg
* Reported Jan 12 8:00 AM — Jan 27 8:00 AM, Niterói, Weather by CustomWeather, © 2014

Note: Actual official high and low records may vary slightly from our data, if they occured in-between our weather recording intervals... More about our weather records

Advertising

Niterói weather history for previous 24 hours

 ConditionsComfort  
Time TempWeatherWind HumidityBarometerVisibility
8:00 AM
Jan 27
82 °FSunny.5 mph70%29.92 "Hg10 mi
7:00 AM79 °FSunny.6 mph79%29.89 "Hg10 mi
6:00 AM79 °FClear.5 mph84%29.89 "Hg10 mi
11:00 PM
Jan 26
82 °FPassing clouds.5 mph74%29.92 "HgN/A
10:00 PM84 °FPassing clouds.5 mph66%29.89 "HgN/A
9:00 PM84 °FPartly cloudy.5 mph70%29.86 "HgN/A
8:00 PM84 °FPartly cloudy.9 mph74%29.86 "HgN/A
7:00 PM86 °FBroken clouds.7 mph62%29.86 "HgN/A
6:00 PM88 °FPartly sunny.14 mph55%N/AN/A
5:00 PM88 °FScattered clouds.13 mph59%29.86 "HgN/A
4:00 PM91 °FScattered clouds.12 mph52%29.83 "HgN/A
3:00 PM93 °FScattered clouds.15 mph49%29.86 "HgN/A
2:00 PM93 °FScattered clouds.14 mph49%29.89 "HgN/A
1:00 PM91 °FScattered clouds.13 mph59%29.89 "HgN/A
12:00 PM93 °FScattered clouds.10 mph56%29.92 "HgN/A
11:00 AM91 °FPassing clouds.10 mph63%29.92 "HgN/A
10:00 AM88 °FScattered clouds.3 mph66%29.89 "HgN/A
9:00 AM84 °FScattered clouds.5 mph70%29.89 "HgN/A
8:00 AM82 °FScattered clouds.5 mph70%29.89 "HgN/A
Weather by CustomWeather, © 2014

See weather overviewHow to use our weather pages